Satellite: HRBE Catalog number: 37855 Epoch time: 13087.07558248 Element set: 453 Inclination: 101.7195 deg RA of node: 263.6985 deg Eccentricity: 0.0239500 Arg of perigee: 259.0016 deg Mean anomaly: 214.4614 deg Mean motion: 14.82945366 rev/day Decay rate: 4.538e-05 rev/day^2 Epoch rev: 7642 Checksum: 320
Satellite: RS-39 Catalog number: 38051 Epoch time: 13087.81341111 Element set: 296 Inclination: 051.6362 deg RA of node: 237.8042 deg Eccentricity: 0.0011621 Arg of perigee: 335.8321 deg Mean anomaly: 176.9709 deg Mean motion: 15.30176483 rev/day Decay rate: 8.379e-05 rev/day^2 Epoch rev: 6546 Checksum: 304
Satellite: E-STAR Catalog number: 38079 Epoch time: 13087.93304895 Element set: 2 Inclination: 069.4830 deg RA of node: 013.8607 deg Eccentricity: 0.0654076 Arg of perigee: 242.4861 deg Mean anomaly: 197.0599 deg Mean motion: 14.37263163 rev/day Decay rate: 2.8714e-04 rev/day^2 Epoch rev: 5817 Checksum: 326
Satellite: GOLIAT Catalog number: 38085 Epoch time: 13087.81650180 Element set: 926 Inclination: 069.4910 deg RA of node: 015.7414 deg Eccentricity: 0.0661546 Arg of perigee: 243.3837 deg Mean anomaly: 109.8354 deg Mean motion: 14.35586013 rev/day Decay rate: 2.4065e-04 rev/day^2 Epoch rev: 5811 Checksum: 303
Satellite: HORYU-2 Catalog number: 38340 Epoch time: 13087.08088818 Element set: 437 Inclination: 098.2082 deg RA of node: 034.0791 deg Eccentricity: 0.0013014 Arg of perigee: 145.8808 deg Mean anomaly: 214.3196 deg Mean motion: 14.70706983 rev/day Decay rate: 6.85e-06 rev/day^2 Epoch rev: 4619 Checksum: 310
Satellite: RS-40 Catalog number: 38736 Epoch time: 13087.65901372 Element set: 224 Inclination: 082.4793 deg RA of node: 205.3239 deg Eccentricity: 0.0021592 Arg of perigee: 135.7742 deg Mean anomaly: 224.5069 deg Mean motion: 12.43229816 rev/day Decay rate: 1.0e-07 rev/day^2 Epoch rev: 3024 Checksum: 283
Satellite: PROITERES Catalog number: 38756 Epoch time: 13087.81862991 Element set: 635 Inclination: 098.2579 deg RA of node: 163.3724 deg Eccentricity: 0.0012875 Arg of perigee: 008.5732 deg Mean anomaly: 351.5682 deg Mean motion: 14.74119053 rev/day Decay rate: 3.78e-06 rev/day^2 Epoch rev: 2955 Checksum: 333
Satellite: RAIKO Catalog number: 38852 Epoch time: 13087.58347312 Element set: 176 Inclination: 051.6395 deg RA of node: 140.8586 deg Eccentricity: 0.0015575 Arg of perigee: 053.9775 deg Mean anomaly: 306.2662 deg Mean motion: 15.64936627 rev/day Decay rate: 5.3496e-04 rev/day^2 Epoch rev: 2719 Checksum: 339
Satellite: FITSAT 1 Catalog number: 38853 Epoch time: 13087.62269985 Element set: 178 Inclination: 051.6416 deg RA of node: 138.8910 deg Eccentricity: 0.0012555 Arg of perigee: 060.2035 deg Mean anomaly: 300.0209 deg Mean motion: 15.68389512 rev/day Decay rate: 7.4615e-04 rev/day^2 Epoch rev: 2727 Checksum: 307
Satellite: TechEdSat Catalog number: 38854 Epoch time: 13087.54862707 Element set: 205 Inclination: 051.6352 deg RA of node: 134.5804 deg Eccentricity: 0.0012614 Arg of perigee: 051.9633 deg Mean anomaly: 308.2505 deg Mean motion: 15.79190033 rev/day Decay rate: 1.88345e-03 rev/day^2 Epoch rev: 2732 Checksum: 291
Satellite: F 1 Catalog number: 38855 Epoch time: 13087.40681058 Element set: 203 Inclination: 051.6340 deg RA of node: 135.8772 deg Eccentricity: 0.0012321 Arg of perigee: 052.1676 deg Mean anomaly: 308.0438 deg Mean motion: 15.77654856 rev/day Decay rate: 1.59116e-03 rev/day^2 Epoch rev: 2718 Checksum: 301
Satellite: WeWish Catalog number: 38856 Epoch time: 13069.98095549 Element set: 248 Inclination: 051.6166 deg RA of node: 215.0521 deg Eccentricity: 0.0008325 Arg of perigee: 316.0438 deg Mean anomaly: 044.8765 deg Mean motion: 16.41348316 rev/day Decay rate: 1.6701328e-01 rev/day^2 Epoch rev: 2458 Checksum: 318
/EX
participants (1)
-
Ray Hoad